Location: Tr�vern
(48.0333°N, 4.6000°W)
Time: 18:07:53
(UTC+00:00)

Cosmos 1470 Rocket - Pass Details

Date: 14 July 2020
Orbit: 603 x 635 km, 82.5° (Epoch: 12 August)

Event Time Altitude Azimuth Distance (km) Brightness Sun altitude
Exits shadow 01:16:51 45° 198° (SSW) 867 3.8 -19.3°
Maximum altitude 01:18:12 82° 280° (W) 648 3.5 -19.3°
Drops below altitude 10° 01:22:43 10° 8° (N) 2,031 7.4 -19.1°
Sets 01:24:58 0° 9° (N) 2,942 8.7 -19.0°
